Regional Weather Roundup
Issued by NWS Northern Indiana

Home | Current Version | Previous Version | Text Only | Print | Product List | Glossary On
Versions: 1 2 3 4 5 6 7 8 9 10 11 12 13 14 15 16 17 18 19 20 21 22 23 24 25 26 27 28 29 30 31 32 33 34 35 36 37 38 39 40 41 42 43 44 45 46 47 48 49 50
000
ASUS43 KIWX 180610
RWRIWX

KIWX WEATHER ROUNDUP
NATIONAL WEATHER SERVICE NORTHERN INDIANA
100 AM EST THU DEC 18 2014

NOTE: "FAIR" INDICATES FEW OR NO CLOUDS BELOW 12,000 FEET WITH NO
SIGNIFICANT WEATHER AND/OR OBSTRUCTIONS TO VISIBILITY.

* THESE STATIONS ARE NOT UNDER NWS QUALITY CONTROL. THEY ALSO MAY NOT
  REPORT WEATHER SUCH AS PRECIPITATION OR FOG.

INZ001>027-180700-
NORTHERN INDIANA

CITY           SKY/WX    TMP DP  RH WIND       PRES   REMARKS
GARY*          CLOUDY    28  17  66 NW6       30.30S WCI  21
VALPARAISO     CLOUDY    25  17  72 W7        30.29R WCI  17
6HR MIN TEMP:  25; 6HR MAX TEMP:  26;

MICHIGAN CITY* CLOUDY    28  19  69 W3        30.28R
LAPORTE*       CLOUDY    28  21  74 W8        30.28R WCI  20
6HR MIN TEMP:  28; 6HR MAX TEMP:  29;

KNOX*          CLOUDY    26  19  75 W9        30.28R WCI  16
6HR MIN TEMP:   9; 6HR MAX TEMP:  81;

SOUTH BEND     CLOUDY    29  21  72 W7        30.26  WCI  22
6HR MIN TEMP:  28; 6HR MAX TEMP:  29;

GOSHEN         CLOUDY    27  21  78 W10       30.25R WCI  17
6HR MIN TEMP:  27; 6HR MAX TEMP:  27;

MONTICELLO*    CLOUDY    26  19  77 NW5       30.28F WCI  20
6HR MIN TEMP:  26; 6HR MAX TEMP:  26;

LOGANSPORT*    CLOUDY    27  19  74 W5        30.28F WCI  21
ROCHESTER*     MOCLDY    30  23  74 W3        30.27S
WARSAW*        CLOUDY    27  21  80 W7        30.26R WCI  19
ANGOLA*        CLOUDY    27  21  80 NW7       30.21S WCI  19
FORT WAYNE     CLOUDY    27  21  78 W12       30.26R WCI  17
6HR MIN TEMP:  26; 6HR MAX TEMP:  27; 6HR PCP: TRACE;

HUNTINGTON*    CLOUDY    26  20  80 W6        30.26S WCI  19
6HR MIN TEMP:  25; 6HR MAX TEMP:  26;

PERU/GRISSOM   CLOUDY    26  23  90 W6        30.26S WCI  19
6HR MIN TEMP:  26; 6HR MAX TEMP:  26;

MARION*        CLOUDY    25  22  86 W6        30.27S WCI  18
6HR MIN TEMP:  22; 6HR MAX TEMP:  50;


$$
INZ028>050-180700-
CENTRAL INDIANA

CITY           SKY/WX    TMP DP  RH WIND       PRES   REMARKS
LAFAYETTE      CLOUDY    24  18  77 NW5       30.30S WCI  18
6HR MIN TEMP:  24; 6HR MAX TEMP:  25;

KOKOMO*        CLOUDY    27  18  69 W7        30.27F WCI  19
6HR MIN TEMP:  27; 6HR MAX TEMP:  27;

MUNCIE*        CLOUDY    26  18  71 NW9       30.27R WCI  17
6HR MIN TEMP:  25; 6HR MAX TEMP:  26;

INDIANAPOLIS   CLOUDY    24  18  77 NW6       30.28F WCI  17
6HR MIN TEMP:  23; 6HR MAX TEMP:  24; 6HR PCP: TRACE;


$$
MIZ043>046-050>051-056>058-064>065-071>073-077>080-180700-
SOUTHWEST LOWER MICHIGAN

CITY           SKY/WX    TMP DP  RH WIND       PRES   REMARKS
BATTLE CREEK   CLOUDY    29  20  69 W7        30.21S WCI  22
6HR MIN TEMP:  29; 6HR MAX TEMP:  29;

BENTON HARBOR  CLOUDY    28  21  75 NW10      30.25S WCI  19
6HR MIN TEMP:  28; 6HR MAX TEMP:  28;

COLDWATER*     CLOUDY    28  21  75 W9        30.21S WCI  19
6HR MIN TEMP:  28; 6HR MAX TEMP:  28;

HILLSDALE*     CLOUDY    28  22  78 W9        30.19R WCI  19
HOLLAND        CLOUDY    32  22  66 W8        30.24R WCI  25
6HR MIN TEMP:  31; 6HR MAX TEMP:  32;

GRAND RAPIDS   CLOUDY    29  22  75 W10       30.21R WCI  20
6HR MIN TEMP:  27; 6HR MAX TEMP:  29; 6HR PCP: TRACE;

KALAMAZOO      CLOUDY    29  21  72 W6        30.22S WCI  23
6HR MIN TEMP:  28; 6HR MAX TEMP:  29;

STURGIS*       CLOUDY    27  21  80 W7        30.22S WCI  19
THREE RIVERS*  CLOUDY    29  22  74 W7        30.23F WCI  22
6HR MIN TEMP:  28; 6HR MAX TEMP:  29;


$$
OHZ001>008-015>018-024>025-180700-
NORTHWEST OHIO

CITY           SKY/WX    TMP DP  RH WIND       PRES   REMARKS
WAUSEON*       CLOUDY    28  21  74 NW10G16   30.21S WCI  19
FINDLAY        CLOUDY    28  22  78 W10       30.22R WCI  19
6HR MIN TEMP:  28; 6HR MAX TEMP:  29;

TOLEDO EXPRESS CLOUDY    29  20  69 W12       30.21S WCI  19
6HR MIN TEMP:  29; 6HR MAX TEMP:  29;

TOLEDO METCALF CLOUDY    30  20  66 W13       30.22S WCI  20
6HR MIN TEMP:  30; 6HR MAX TEMP:  31;

LIMA           CLOUDY    30  20  66 W12       30.22S WCI  20
6HR MIN TEMP:  30; 6HR MAX TEMP:  30;


$$
AND FOR LAKE MICHIGAN COASTAL AND OPEN LAKE BUOY OBSERVATIONS

STATION/POSITION TEMP    WIND        PRES    VSBY  WAVE
                 AIR SEA DIR/SP/G                  HT/PER
                 (F)     (DEG/KT/KT) (MB)    (MI)  (FT/S)
CALUMET HARBOR    25     230/  4/  5 1024.6S
SAINT JOSEPH      30     250/  8/ 11 1025.4R

$$
&&


USA.gov is the U.S. government's official web portal to all federal, state and local government web resources and services.